Location: Unspecified
(51.0950°N, 12.9690°E)
Time: 22:51:46
(UTC+00:00)

Cosmos 332 Rocket - Pass Details

Date: 28 October 2021
Orbit: 682 x 703 km, 74.0° (Epoch: 01 December)

Event Time Altitude Azimuth Distance (km) Brightness Sun altitude
Rises 17:03:06 0° 202° (SSW) 3,072 7.5 -12.1°
Reaches altitude 10° 17:05:24 10° 203° (SSW) 2,156 6.7 -12.5°
Maximum altitude 17:10:17 90° 117° (ESE) 703 3.8 -13.2°
Drops below altitude 10° 17:15:10 10° 25° (NNE) 2,159 6.1 -14.0°
Sets 17:17:29 0° 25° (NNE) 3,077 6.8 -14.4°
